Regional Weather Roundup
Issued by NWS Upton, NY

Current Version | Previous Version | Text Only | Print | Product List | Glossary On
Versions: 1 2 3 4 5 6 7 8 9 10 11 12 13 14 15 16 17 18 19 20 21 22 23 24 25 26 27
000 ASUS41 KOKX 211009 RWROKX REGIONAL WEATHER ROUNDUP NATIONAL WEATHER SERVICE NEW YORK NY 600 AM EDT FRI JUL 21 2017 NOTE: "FAIR" INDICATES FEW OR NO CLOUDS BELOW 12,000 FEET WITH NO SIGNIFICANT WEATHER AND/OR OBSTRUCTIONS TO VISIBILITY. NYZ071-072-176-178-NJZ106-104-211100- NEW YORK CITY METRO AREA CITY SKY/WX TMP DP RH WIND PRES REMARKS Central Park PTCLDY 77 67 71 CALM 29.92R Bronx Bot Gard N/A 75 66 73 NW5 29.91R LaGuardia APRT PTCLDY 78 69 73 NW9 29.88R Kennedy INTL PTCLDY 79 69 71 NW10 29.89R Breezy Point N/A 72 N/A N/A W5 N/A Newark/Liberty MOCLDY 77 68 73 NW3 29.89R Teterboro CLEAR 75 68 78 W3 29.88R $$ NYZ177-179-078>081-211100- LONG ISLAND NEW YORK CITY SKY/WX TMP DP RH WIND PRES REMARKS Jones Beach N/A 75 N/A N/A NW5 N/A Matinecock PT N/A 75 N/A N/A SW6 N/A Farmingdale MOCLDY 76 67 73 W6 29.89R MacArthur/ISP MOCLDY 75 68 78 W7 29.88R Shirley CLEAR 73 69 87 CALM 29.88R Mt Sinai Harb N/A N/A N/A N/A NW1 N/A Westhampton CLEAR 69 65 86 CALM 29.89R East Hampton FAIR 71 67 87 CALM 29.86S Montauk N/A 74 69 85 W5 29.87S $$ NYZ052-065-067-211100- HUDSON VALLEY CITY SKY/WX TMP DP RH WIND PRES REMARKS White Plains NOT AVBL Larchmont Harb N/A 75 N/A N/A SW7 N/A Croton O-T Hud N/A 73 N/A N/A MISG N/A Newburgh PTCLDY 70 70 100 W8 29.91R Montgomery MOCLDY 69 67 93 W8 29.90S Poughkeepsie PTCLDY 67 65 93 CALM 29.88R Albany PTCLDY 64 61 90 CALM 29.89R $$ NJZ001-105-106-008-010-013-015-019>022-104-211100- NEW JERSEY CITY SKY/WX TMP DP RH WIND PRES REMARKS Newark/Liberty MOCLDY 77 68 73 NW3 29.89R Teterboro CLEAR 75 68 78 W3 29.88R Caldwell MOCLDY 71 68 90 CALM 29.91R Somerville CLOUDY 70 69 97 CALM 29.89S FOG Linden FAIR 73 69 87 N5 29.89S Perth Amboy N/A 73 N/A N/A W2 N/A Sussex FOG 66 66 100 CALM 29.92R VSB 1/2 Andover N/A 68 67 96 CALM 29.93R Trenton PTCLDY 72 70 93 CALM 29.90R Millville PTCLDY 75 75 100 W3 29.89R FOG Atlantic City PTCLDY 79 76 90 W5 29.89R Wrightstown CLOUDY 71 70 94 NE3 29.88R Toms River CLOUDY 72 69 90 CALM 29.91R Belmar CLOUDY 72 70 93 NW3 29.91R $$ PAZ047>061-062-071-211100- EASTERN PENNSYLVANIA CITY SKY/WX TMP DP RH WIND PRES REMARKS Philadelphia PTCLDY 80 69 69 NW3 29.90R Allentown CLOUDY 72 69 90 CALM 29.92R Scranton FOG 68 68 100 S3 29.95R VSB 1/2 $$ CTZ002-004>006-009-010-012-RIZ004-006-007-MAZ004-011-015-211100- SOUTHERN NEW ENGLAND IN CT CITY SKY/WX TMP DP RH WIND PRES REMARKS Bradley INTL PTCLDY 68 66 93 W3 29.86S Hartford CLEAR 70 66 87 CALM 29.86S Danbury CLEAR 67 66 97 CALM 29.90S Wtrbury/Oxford PTCLDY 66 63 88 CALM 29.89S Bridgeport CLEAR 74 67 78 CALM 29.87S Meriden CLEAR 67 65 93 CALM 29.87S New Haven CLEAR 74 66 76 NW5 29.87S Chester FAIR 70 64 83 CALM 29.88R Groton CLEAR 71 66 84 SW6 29.86R Wilimantic CLOUDY 69 68 96 CALM 29.86F IN RI CITY SKY/WX TMP DP RH WIND PRES REMARKS Providence PTCLDY 72 66 81 NW5 29.85R Block Island CLEAR 70 67 90 W7 29.87R Westerly CLEAR 71 68 90 CALM 29.86R IN MA CITY SKY/WX TMP DP RH WIND PRES REMARKS Boston PTCLDY 73 62 68 W7 29.84R Worcester CLEAR 65 59 81 CALM 29.89R Westfield PTCLDY 63 63 100 SW3 29.86F Provincetown CLEAR 68 67 96 W6 29.83R Nantucket CLEAR 73 73 100 NW8 29.83R $$ ANZ330-335-338-340-345-350-353-355-211100- COASTAL MARINE OBSERVATIONS STATION/POSITION TIME SKY/WX TEMP WIND PRES VSBY WAVE AIR SEA DIR/SP/G HT/PER (UTC) (F) (DEG/KT/KT) (MB) (MI) (FT/S) NY HARB ENTRANCE 0850 75 74 280/ 6/ 8 1011.3 2/ 6 20 S FIRE ISLAND 0850 76 75 290/ 6/ 8 1011.0 3/ 5 GREAT SOUTH BAY 0930 79 81 290/ 6/ 8 N/A 23 SSW MONTAUK P 0850 76 75 1011.2 4/ 6 15 E BARNEGAT LI 0930 77 N/A 3/ 5 HUDSON CANYON 0850 80 78 240/ 14/ 16 1010.6 4/ 5 KINGS POINT 0930 75 74 340/ 6/ 8 1011.9 EXECUTION ROCKS 0930 75 250/ 4/ 6 N/A CENTRAL LI SOUND NOT AVBL EASTERN LI SOUND NOT AVBL ROBBINS REEF 0924 270/ 4/ 5 1012.7 $$ >>>>>>>>>>>>>>>>>>>>>>>>>>>> KEY <<<<<<<<<<<<<<<<<<<<<<<<<<< > < > SKY/WX - Sky Condition/Present Weather < > TMP - Temperature in Fahrenheit < > DP - Dew Point in Fahrenheit < > RH - Relative Humidity in Percent < > WIND - Direction (from) and Speed in MPH < > PRES - Mean Sea Level Pressure (inches of Hg) < > WCI - Wind Chill Index < > VSB - VISIBILITY IN MILES < > HX - HEAT INDEX < > TC - TEMPERATURE IN CELSIUS < > VRB - VARIABLE WIND DIRECTION < > < >>>>>>>>>>>>>>>>>>>>>>>>>>>> KEY <<<<<<<<<<<<<<<<<<<<<<<<<<<

USA.gov is the U.S. government's official web portal to all federal, state and local government web resources and services.